Content
SEND FEEDBACK

Daily
Averages
Monthly
Summary
Germany

MUNICH, GERMANY


Home > Europe > Germany
Elevation: 1735 feet     Latitude: 48 08N     Longitude: 011 42E

WEATHER
 
SELECT A DAY
Number of Records: 292,482;   Date Range: 7/1/96 - 9/17/14
 
SHARE

PRINT THIS DATA

[ ← Previous Day ]
WEATHER ALMANAC - MARCH 22, 2013
[ Next Day → ]
[ °C ]   °F
Weather ElementAverageHighLow
Temperature35.1 °F42.8 °F (12:50 pm)28.4 °F (3:20 am)
Dewpoint27.3 °F30.2 °F (2:50 am)24.8 °F (4:50 pm)
Humidity75.5 %100 % (2:50 am)49 % (4:50 pm)
Barometer29.94 in30.01 in (12:50 am)29.89 in (3:20 pm)
Wind Speed9.1 mph16.1 mph (11:50 pm)
Weather ElementAverage
Visibility5.7 mi
Wind DirectionENE (57.4 °)

Weather ElementTotal
Precipitation---
Heating Degree Days29.4 (Base 65)
Averaged from 47 records on March 22, 2013
WEATHER CONDITIONS BREAKOUT
WIND DIRECTION BREAKOUT
WEATHER BY HOUR - MARCH 22, 2013
[ °C ]   °F
Local TimeTemperatureDewpointHumidityBarometerVisibilityWind DirectionWind SpeedGust SpeedPrecipitationEventsConditions
12:50 AM30.2 °F28.4 °F93 %30.01 in6.2 miNNE (30°)3.5 mphOvercast
1:20 AM30.2 °F28.4 °F93 %30.01 in6.2 miENE (70°)2.3 mphMostly Cloudy
1:50 AM30.2 °F28.4 °F93 %30.01 in6.2 miVariable2.3 mphMostly Cloudy
2:20 AM30.2 °F28.4 °F93 %30.01 in6.2 miENE (60°)2.3 mphMostly Cloudy
2:50 AM30.2 °F30.2 °F100 %30.01 in6.2 miNNE (30°)1.2 mphMostly Cloudy
3:20 AM28.4 °F28.4 °F100 %29.98 in6.2 miNNE (30°)2.3 mphMostly Cloudy
3:50 AM28.4 °F28.4 °F100 %29.98 in5.6 miENE (70°)2.3 mphOvercast
4:20 AM30.2 °F30.2 °F100 %29.98 in5.0 miNNE (20°)3.5 mphOvercast
4:50 AM28.4 °F28.4 °F100 %29.98 in5.0 miNNE (30°)6.9 mphOvercast
5:20 AM30.2 °F30.2 °F100 %29.98 in5.0 miNE (50°)5.8 mphOvercast
5:50 AM30.2 °F28.4 °F93 %29.98 in3.7 miENE (70°)4.6 mphMostly Cloudy
6:20 AM30.2 °F30.2 °F100 %29.98 in4.3 miEast (90°)4.6 mphMostly Cloudy
6:50 AM30.2 °F28.4 °F93 %29.98 in4.3 miNE (40°)2.3 mphMostly Cloudy
7:20 AM30.2 °F28.4 °F93 %29.98 in4.3 miEast (90°)4.6 mph
7:50 AM32.0 °F28.4 °F87 %29.98 in5.0 miENE (60°)5.8 mph
8:20 AM33.8 °F30.2 °F87 %30.01 inENE (60°)8.1 mphClear
8:50 AM33.8 °F28.4 °F81 %30.01 inENE (70°)9.2 mphClear
9:20 AM35.6 °F26.6 °F70 %30.01 inENE (70°)10.4 mphClear
9:50 AM37.4 °F28.4 °F70 %29.98 inENE (70°)11.5 mphClear
10:20 AM37.4 °F28.4 °F70 %29.98 inEast (80°)10.4 mphClear
10:50 AM39.2 °F28.4 °F65 %29.98 in6.2 miEast (100°)10.4 mphPartly Cloudy
11:20 AM41.0 °F30.2 °F65 %29.98 in6.2 miENE (60°)9.2 mphScattered Clouds
11:50 AM39.2 °F26.6 °F61 %29.95 in6.2 miENE (60°)10.4 mphMostly Cloudy
12:20 PM41.0 °F28.4 °F61 %29.95 in6.2 miENE (60°)11.5 mphMostly Cloudy
12:50 PM42.8 °F26.6 °F53 %29.95 in6.2 miENE (60°)9.2 mphMostly Cloudy
1:20 PM41.0 °F26.6 °F57 %29.92 in6.2 miENE (60°)9.2 mphScattered Clouds
1:50 PM42.8 °F28.4 °F57 %29.92 in6.2 miENE (70°)10.4 mphScattered Clouds
2:20 PM42.8 °F26.6 °F53 %29.92 in6.2 miENE (60°)11.5 mphPartly Cloudy
2:50 PM42.8 °F26.6 °F53 %29.92 in6.2 miENE (60°)9.2 mphPartly Cloudy
3:20 PM42.8 °F26.6 °F53 %29.89 in6.2 miENE (60°)8.1 mphPartly Cloudy
3:50 PM42.8 °F26.6 °F53 %29.89 in6.2 miENE (70°)10.4 mphPartly Cloudy
4:20 PM42.8 °F26.6 °F53 %29.89 inENE (60°)11.5 mphClear
4:50 PM42.8 °F24.8 °F49 %29.89 inENE (70°)12.7 mphClear
5:20 PM41.0 °F26.6 °F57 %29.89 inNE (50°)15.0 mphClear
5:50 PM41.0 °F26.6 °F57 %29.89 inENE (60°)15.0 mphClear
6:20 PM37.4 °F24.8 °F60 %29.89 inENE (60°)12.7 mphClear
6:50 PM37.4 °F26.6 °F65 %29.89 inNE (50°)13.8 mphClear
7:20 PM35.6 °F26.6 °F70 %29.89 inNE (50°)11.5 mphClear
7:50 PM33.8 °F24.8 °F70 %29.89 inNE (50°)12.7 mphClear
8:20 PM33.8 °F24.8 °F70 %29.89 inNE (50°)13.8 mphClear
8:50 PM32.0 °F24.8 °F75 %29.89 inNE (50°)12.7 mphClear
9:20 PM32.0 °F24.8 °F75 %29.89 inNE (50°)12.7 mphClear
9:50 PM30.2 °F24.8 °F80 %29.89 inNE (50°)15.0 mphClear
10:20 PM30.2 °F24.8 °F80 %29.89 inNE (50°)13.8 mphClear
10:50 PM30.2 °F26.6 °F86 %29.89 inNE (50°)13.8 mphClear
11:20 PM32.0 °F24.8 °F75 %29.89 inENE (60°)11.5 mphClear
11:50 PM30.2 °F24.8 °F80 %29.89 inEast (80°)16.1 mphClear
Hourly data recorded from EDDM, located miles away from Munich, Germany







STORIES FROM OUR PARTNERS